Date,TemperatureHighF,TemperatureAvgF,TemperatureLowF,DewpointHighF,DewpointAvgF,DewpointLowF,HumidityHigh,HumidityAvg,HumidityLow,PressureMaxIn,PressureMinIn,WindSpeedMaxMPH,WindSpeedAvgMPH,GustSpeedMaxMPH,PrecipitationSumIn
2013-3-1,45.4,41.0,36.5,32.4,29.7,24.7,75,64,55,29.77,29.62,7,1,0,0.00
2013-3-2,37.9,34.4,30.4,25.2,23.2,20.5,74,63,55,29.78,29.71,10,2,13,0.00
2013-3-3,38.2,33.3,28.3,22.5,20.8,19.2,73,60,50,29.81,29.69,11,2,14,0.00
2013-3-4,42.4,34.1,27.7,21.9,18.8,16.0,69,54,42,29.94,29.80,13,2,15,0.00
2013-3-5,44.7,35.7,24.3,30.5,23.2,18.1,80,61,42,30.00,29.75,7,0,0,0.00
2013-3-6,40.0,37.1,33.9,35.0,32.4,28.8,87,83,70,29.87,29.52,16,3,19,1.08
2013-3-7,48.0,40.8,35.0,30.7,28.5,25.2,76,62,48,30.05,29.86,15,3,17,0.00
2013-3-8,46.5,41.4,34.4,29.7,26.6,22.9,71,56,48,30.16,30.01,16,3,19,0.00
2013-3-9,61.4,44.8,33.8,29.9,25.3,19.5,67,48,21,30.24,30.15,7,1,0,0.00
2013-3-10,60.2,45.4,31.6,38.0,29.5,17.6,86,58,19,30.26,30.16,6,0,0,0.00
2013-3-11,56.8,47.7,40.7,49.4,42.4,36.3,87,82,75,30.18,29.88,5,0,0,0.00
2013-3-12,60.3,50.9,42.2,52.8,43.6,31.3,87,76,60,29.90,29.61,11,1,12,0.82
2013-3-13,50.8,41.2,30.9,36.0,27.2,18.9,87,60,30,29.95,29.80,12,2,15,0.00
2013-3-14,45.4,37.2,30.9,20.6,17.8,14.2,62,46,30,30.01,29.91,14,3,18,0.00
2013-3-15,55.9,42.5,28.3,31.8,23.7,17.9,73,49,29,30.01,29.69,10,1,13,0.00
2013-3-16,55.7,44.4,36.8,42.2,35.9,31.4,85,73,55,29.84,29.57,6,1,0,0.00
2013-3-17,40.8,37.3,34.3,32.7,30.0,24.4,87,75,59,30.19,29.84,6,0,0,0.00
2013-3-18,39.9,36.9,34.2,34.1,28.2,19.3,86,71,51,30.25,29.78,7,1,0,0.43
2013-3-19,55.0,44.0,37.3,43.4,32.2,12.4,88,67,22,29.82,29.63,10,1,12,0.02
2013-3-20,52.6,42.7,31.7,31.5,20.1,13.9,69,43,22,29.91,29.69,10,1,13,0.00
2013-3-21,43.0,34.7,28.8,26.9,15.6,-99.9,75,49,34,29.81,29.65,12,3,14,0.00
2013-3-22,46.4,35.9,27.9,21.4,17.5,11.0,59,48,34,29.92,29.78,10,2,12,0.00
2013-3-23,51.7,39.2,25.7,26.5,23.0,18.5,78,54,34,29.93,29.82,16,1,16,0.00
2013-3-24,42.2,36.8,29.7,31.6,25.2,21.5,86,64,48,29.92,29.59,6,0,0,0.00
2013-3-25,35.0,33.5,31.9,30.9,29.0,26.8,87,83,81,29.60,29.42,4,0,0,0.79
2013-3-26,50.3,40.7,31.0,35.0,29.7,25.6,88,67,40,29.87,29.60,10,1,0,0.37
2013-3-27,49.7,43.9,38.2,32.4,29.4,26.0,71,57,44,29.99,29.87,14,2,17,0.00
2013-3-28,45.0,43.5,42.6,31.2,30.8,30.4,63,61,57,30.12,30.09,7,1,0,0.00
2013-3-29,55.2,46.2,35.6,31.7,29.3,26.6,70,53,36,30.15,30.04,10,1,0,0.00
2013-3-30,59.4,48.1,38.0,35.2,31.1,28.7,72,54,34,30.14,30.03,5,0,0,0.00
2013-3-31,50.6,49.7,47.7,45.4,44.9,43.4,86,84,81,29.70,29.66,3,0,0,0.04